Regional Weather Roundup
Issued by NWS

Home | Current Version | Previous Version | Text Only | Print | Product List | Glossary On
Versions: 1 2 3 4 5 6 7 8 9 10 11 12 13 14 15 16 17 18 19 20 21 22 23 24 25 26 27 28 29 30 31 32 33 34 35 36 37 38 39 40 41 42 43 44 45 46 47 48 49 50
000
ASUS43 KOAX 062110
RWRNE

WEATHER ROUNDUP FOR NEBRASKA
NATIONAL WEATHER SERVICE OMAHA NE
300 PM CST TUE DEC 06 2016

NOTES: SATELLITE DATA IS BEING USED TO AUGMENT CLOUD COVER ABOVE
       12000 FEET.
       "FAIR" INDICATES FEW OR NO CLOUDS BELOW 12,000 FEET WITH NO
       SIGNIFICANT WEATHER AND/OR OBSTRUCTIONS TO VISIBILITY.

  * THESE STATIONS DO NOT REPORT WEATHER SUCH AS RAIN...SNOW OR FOG.

NEZ001>004-019>022-054>056-062200-
NEBRASKA PANHANDLE

CITY           SKY/WX    TMP DP  RH WIND       PRES   REMARKS
SCOTTSBLUFF    SUNNY     26   0  32 NW8       29.92F WCI  18
ALLIANCE       SUNNY     27   1  32 NW15      29.91F WCI  15
CHADRON        SUNNY     22   5  48 W14       29.99F WCI   9
KIMBALL        CLOUDY    26  -3  29 N3        29.88S
SIDNEY         CLOUDY    27  -5  24 N3        29.92F
$$

NEZ057>060-069>072-079>082-062200-
SOUTHWEST NEBRASKA

CITY           SKY/WX    TMP DP  RH WIND       PRES   REMARKS
NORTH PLATTE   SUNNY     34   3  27 NW13      29.99F WCI  25
IMPERIAL       SUNNY     33  -1  23 NW13      29.97F WCI  24
LEXINGTON      SUNNY     35   4  27 W12G21    30.00S WCI  27
MCCOOK         SUNNY     35   3  26 W9        30.00F WCI  28
OGALLALA       SUNNY     31   3  29 NW8       29.97F WCI  24
$$

NEZ005>010-023>029-035>040-094-062200-
NORTH CENTRAL NEBRASKA

CITY           SKY/WX    TMP DP  RH WIND       PRES   REMARKS
VALENTINE      SUNNY     23   3  42 NW20G26   29.98S WCI   8
AINSWORTH      SUNNY     26   4  39 NW21G28   29.97S WCI  11
BROKEN BOW     SUNNY     32   5  32 N8        29.98S WCI  25
O`NEILL        SUNNY     28   5  38 NW21G31   29.97S WCI  14
ORD            SUNNY     31   1  28 NW21      29.98S WCI  18
THEDFORD       SUNNY     32   5  32 NW15G22   29.96S WCI  21
$$

NEZ041-046>049-061>064-073>077-083>087-062200-
SOUTH CENTRAL NEBRASKA

CITY           SKY/WX    TMP DP  RH WIND       PRES   REMARKS
GRAND ISLAND   SUNNY     34   7  32 NW20      30.02R WCI  23
AURORA         SUNNY     33   7  33 NW13G22   30.01S WCI  24
HASTINGS       SUNNY     34   7  32 NW16      30.03S WCI  24
HEBRON         SUNNY     36   8  31 NW15      30.04S WCI  27
HOLDREGE       SUNNY     35   5  28 NW15      30.01S WCI  25
KEARNEY *      SUNNY     36   7  30 W9G17     30.01S WCI  29
YORK           SUNNY     32   9  37 NW16G23   30.01S WCI  21
$$

NEZ011>018-030>034-042>045-062200-
NORTHEAST NEBRASKA

CITY           SKY/WX    TMP DP  RH WIND       PRES   REMARKS
NORFOLK        SUNNY     30   5  34 NW24G31   29.95S WCI  16
ALBION         SUNNY     32   2  27 NW23G30   29.98R WCI  19
BLAIR          SUNNY     32  11  42 W17G26    29.98R WCI  21
FREMONT        SUNNY     32  11  42 W21       30.00R WCI  20
TEKAMAH        SUNNY     32  13  45 W24G30    29.98S WCI  19
WAYNE          SUNNY     31   9  39 NW23G37   29.95S WCI  17
$$

NEZ050>053-065>068-078-088>093-062200-
SOUTHEAST NEBRASKA

CITY           SKY/WX    TMP DP  RH WIND       PRES   REMARKS
LINCOLN        SUNNY     36   8  31 NW18      30.03S WCI  26
OMAHA EPPLEY   SUNNY     34   9  35 W23G29    29.99R WCI  22
BEATRICE       SUNNY     37  12  36 NW15      30.04R WCI  28
FALLS CITY     SUNNY     38  11  32 NW15      30.02F WCI  29
NEBRASKA CITY  SUNNY     35   5  28 NW20G26   30.01S WCI  24
PLATTSMOUTH    SUNNY     34   3  27 W17G26    30.01R WCI  23
$$

NEZ044-045-051>053-067-062200-
OMAHA AREA

CITY           SKY/WX    TMP DP  RH WIND       PRES   REMARKS
OMAHA EPPLEY   SUNNY     34   9  35 W23G29    29.99R WCI  22
BLAIR          SUNNY     32  11  42 W17G26    29.98R WCI  21
FREMONT        SUNNY     32  11  42 W21       30.00R WCI  20
MILLARD        SUNNY     34  11  38 W15G22    30.01R WCI  24
PLATTSMOUTH    SUNNY     34   3  27 W17G26    30.01R WCI  23
WAHOO          FAIR      33  10  37 NW20      30.00R WCI  22
$$




USA.gov is the U.S. government's official web portal to all federal, state and local government web resources and services.